Regional Weather Roundup
Issued by NWS

Home | Current Version | Previous Version | Graphics & Text | Print | Product List | Glossary On
Versions: 1 2 3 4 5 6 7 8 9 10 11 12 13 14 15 16 17 18 19 20 21 22 23 24 25 26 27 28 29 30 31 32 33 34 35 36 37 38 39 40 41 42 43 44 45 46 47 48 49 50
000
ASUS43 KLMK 101010
RWRKY
KENTUCKY REGIONAL WEATHER ROUNDUP
NATIONAL WEATHER SERVICE LOUISVILLE KY
600 AM EDT THU JUL 10 2014

NOTE "FAIR" INDICATES FEW OR NO CLOUDS BELOW 12,000 FEET
WITH NO SIGNIFICANT WEATHER AND/OR OBSTRUCTIONS TO VISIBILITY.

KYZ001>023-026-027-061>063-070>075-101100-
WESTERN AND SOUTH CENTRAL KENTUCKY

CITY           SKY/WX    TMP DP  RH WIND       PRES   REMARKS
PADUCAH        MOCLDY    72  64  76 CALM      30.03S
HENDERSON      CLEAR     66  61  82 N3        30.04S
OWENSBORO      PTCLDY    71  63  76 N5        30.05R
HOPKINSVILLE   CLEAR     64  63  99 W2        30.04S
BOWLING GREEN  MOCLDY    63  61  93 CALM      30.06R
GLASGOW        PTCLDY    60  60 100 CALM      30.05S
$$

KYZ024-025-028>034-038-045-046-053-101100-
NORTH CENTRAL KENTUCKY

CITY           SKY/WX    TMP DP  RH WIND       PRES   REMARKS
LOUISVILLE/SDF MOCLDY    70  62  76 N5        30.04S
LOUISVILLE/LOU CLEAR     69  63  81 CALM      30.05S
FORT KNOX      PTCLDY    64  64  97 N1        30.04S
$$

KYZ035>037-039>044-047>052-055>060-089>105-101100-
NORTHEAST KENTUCKY

CITY           SKY/WX    TMP DP  RH WIND       PRES   REMARKS
LEXINGTON      PTCLDY    63  59  87 CALM      30.07R
COVINGTON      MOCLDY    65  59  81 N6        30.06S
FRANKFORT      MOCLDY    64  61  90 CALM      30.05R
$$

KYZ054-064>069-076>088-106>120-101100-
SOUTHEAST KENTUCKY

CITY           SKY/WX    TMP DP  RH WIND       PRES   REMARKS
JACKSON        PTCLDY    65  62  90 CALM      30.07S
LONDON         CLEAR     64  60  87 CALM      30.08R
SOMERSET       CLEAR     61  61 100 CALM      30.08S
MIDDLESBORO    CLOUDY    67  66  95 CALM      30.09R
MONTICELLO     SUNNY     61  61 100 CALM      30.09R FOG
$$



USA.gov is the U.S. government's official web portal to all federal, state and local government web resources and services.